Chicago DuPage, IL

9:54 AM CDT on July 20, 2017 (GMT -0500)
Du Page

Weather History for KDPA - May, 2013

Change the Weather History Date:

Sunday, May 5, 2013

  Actual Average Record
Temperature  
Mean Temperature 60 °F 56 °F  
Max Temperature 73 °F 68 °F 83 °F (2000)
Min Temperature 46 °F 44 °F 34 °F (2005)
Degree Days  
Heating Degree Days 5 10  
Month to date heating degree days 43 51  
Since 1 July heating degree days 6381 6117  
Cooling Degree Days 0 0  
Month to date cooling degree days 6 0  
Year to date cooling degree days 13 4  
Growing Degree Days 9 (Base 50)    
Moisture  
Dew Point 44 °F    
Average Humidity 59    
Maximum Humidity 90    
Minimum Humidity 38    
Precipitation  
Precipitation 0.00 in 0.15 in 0.67 in (2015)
Month to date precipitation 0.61 0.74  
Year to date precipitation 13.88 9.18  
Sea Level Pressure  
Sea Level Pressure 30.00 in    
Wind  
Wind Speed 9 mph (NE)    
Max Wind Speed 20 mph    
Max Gust Speed 24 mph    
Visibility 10 miles    
Events      
T = Trace of Precipitation, MM = Missing Value Source: NWS Daily Summary

Daily Weather History Graph

Daily Weather History Graph

Search for Another Location

Airport or City:

Trip Planner

Search our weather history database for the weather conditions in past years. The results will help you decide how hot, cold, wet, or windy it might be!

Date:

Astronomy

May. 05, 2013 Rise Set
Actual Time 5:43 AM CDT 7:56 PM CDT
Civil Twilight 5:12 AM CDT 8:27 PM CDT
Nautical Twilight 4:34 AM CDT 9:05 PM CDT
Astronomical Twilight 3:53 AM CDT 9:47 PM CDT
Moon 3:18 AM CDT (5/5) 3:52 PM CDT (5/5)
Length of Visible Light 15h 14m
Length of Day
14h 12m
Waning Crescent, 18% of the Moon is Illuminated
May 5
Waning Crescent
May 9
New
May 17
First Quarter
May 24
Full
May 31
Last Quarter

Hourly Weather History & Observations

Time (CDT) Temp. Windchill Dew Point Humidity Pressure Visibility Wind Dir Wind Speed Gust Speed Precip Events Conditions
12:52 AM 48.0 °F - 44.1 °F 86% 30.03 in 10.0 mi North 4.6 mph - N/A   Clear
1:52 AM 48.0 °F - 45.0 °F 89% 30.01 in 9.0 mi NNE 6.9 mph - N/A   Clear
3:52 AM 46.0 °F 43.1 °F 42.1 °F 86% 30.00 in 10.0 mi NNE 5.8 mph - N/A   Clear
4:52 AM 48.9 °F - 43.0 °F 80% 29.99 in 10.0 mi NE 6.9 mph - N/A   Mostly Cloudy
5:52 AM 46.9 °F - 44.1 °F 90% 30.00 in 10.0 mi North 5.8 mph - N/A   Overcast
6:52 AM 48.9 °F - 45.0 °F 86% 30.01 in 10.0 mi NNE 4.6 mph - N/A   Clear
7:52 AM 55.9 °F - 45.0 °F 67% 30.01 in 10.0 mi NNE 6.9 mph - N/A   Partly Cloudy
8:52 AM 61.0 °F - 45.0 °F 56% 30.02 in 10.0 mi NE 8.1 mph - N/A   Clear
9:52 AM 63.0 °F - 46.0 °F 54% 30.02 in 10.0 mi NE 8.1 mph - N/A   Clear
10:52 AM 68.0 °F - 46.0 °F 45% 30.02 in 10.0 mi NE 13.8 mph - N/A   Clear
11:52 AM 71.1 °F - 45.0 °F 39% 30.00 in 10.0 mi NE 12.7 mph - N/A   Clear
12:52 PM 72.0 °F - 45.0 °F 38% 29.98 in 10.0 mi NE 16.1 mph 23.0 mph N/A   Clear
1:52 PM 70.0 °F - 44.1 °F 39% 29.98 in 10.0 mi ENE 17.3 mph 24.2 mph N/A   Clear
2:52 PM 69.1 °F - 46.0 °F 44% 29.98 in 10.0 mi NE 15.0 mph - N/A   Clear
3:52 PM 70.0 °F - 45.0 °F 41% 29.98 in 10.0 mi ENE 15.0 mph 23.0 mph N/A   Clear
4:52 PM 69.1 °F - 45.0 °F 42% 29.97 in 10.0 mi ENE 12.7 mph - N/A   Clear
5:52 PM 68.0 °F - 45.0 °F 43% 29.98 in 10.0 mi NE 10.4 mph - N/A   Clear
6:52 PM 66.9 °F - 45.0 °F 45% 29.98 in 10.0 mi NE 11.5 mph - N/A   Clear
7:52 PM 63.0 °F - 44.1 °F 50% 30.00 in 10.0 mi East 11.5 mph - N/A   Clear
8:52 PM 59.0 °F - 41.0 °F 51% 30.01 in 10.0 mi ENE 9.2 mph - N/A   Clear
9:52 PM 57.9 °F - 39.9 °F 51% 30.03 in 10.0 mi NE 8.1 mph - N/A   Overcast
10:52 PM 55.0 °F - 42.1 °F 62% 30.02 in 10.0 mi North 4.6 mph - N/A   Overcast
11:52 PM 54.0 °F - 43.0 °F 66% 30.03 in 10.0 mi Calm Calm - N/A   Partly Cloudy